| time (UTC) | temp C | wind direction | speed KPH | gust KPH | rain 1hr cm | rain 24hr cm | rain mn cm | humidity % | barometer mb |
| 20260508231050 | 18 | 113 | 1.6 | 8.0 | 0.00 | 0.00 | 0.00 | 41 | 1016.6 |
| 20260508230549 | 18 | 89 | 1.6 | 9.7 | 0.00 | 0.00 | 0.00 | 40 | 1016.5 |
| 20260508230050 | 18 | 212 | 3.2 | 9.7 | 0.00 | 0.00 | 0.00 | 40 | 1016.4 |
| 20260508225050 | 18 | 43 | 3.2 | 9.7 | 0.00 | 0.00 | 0.00 | 39 | 1016.5 |
| 20260508224552 | 18 | 11 | 4.8 | 9.7 | 0.00 | 0.00 | 0.00 | 39 | 1016.6 |
| 20260508224049 | 18 | 220 | 1.6 | 14.5 | 0.00 | 0.00 | 0.00 | 40 | 1016.7 |
| 20260508223554 | 18 | 103 | 3.2 | 14.5 | 0.00 | 0.00 | 0.00 | 39 | 1016.7 |
| 20260508223049 | 18 | 94 | 3.2 | 14.5 | 0.00 | 0.00 | 0.00 | 38 | 1016.8 |
| 20260508222550 | 19 | 112 | 0.0 | 12.9 | 0.00 | 0.00 | 0.00 | 38 | 1016.5 |
| 20260508222049 | 19 | 326 | 3.2 | 12.9 | 0.00 | 0.00 | 0.00 | 37 | 1016.6 |
| 20260508221549 | 19 | 125 | 3.2 | 11.3 | 0.00 | 0.00 | 0.00 | 37 | 1016.5 |
| 20260508221049 | 19 | 131 | 1.6 | 12.9 | 0.00 | 0.00 | 0.00 | 37 | 1016.4 |
| 20260508220548 | 19 | 313 | 4.8 | 16.1 | 0.00 | 0.00 | 0.00 | 38 | 1016.6 |
| 20260508220049 | 19 | 108 | 0.0 | 6.4 | 0.00 | 0.00 | 0.00 | 37 | 1016.7 |
| 20260508215047 | 19 | 90 | 3.2 | 9.7 | 0.00 | 0.00 | 0.00 | 37 | 1016.8 |
| 20260508214547 | 19 | 70 | 1.6 | 12.9 | 0.00 | 0.00 | 0.00 | 37 | 1016.9 |
| 20260508214048 | 19 | 315 | 4.8 | 19.3 | 0.00 | 0.00 | 0.00 | 36 | 1016.7 |
| 20260508213547 | 19 | 312 | 8.0 | 19.3 | 0.00 | 0.00 | 0.00 | 36 | 1016.4 |
| 20260508213047 | 20 | 253 | 4.8 | 14.5 | 0.00 | 0.00 | 0.00 | 36 | 1016.4 |
| 20260508212548 | 20 | 161 | 3.2 | 17.7 | 0.00 | 0.00 | 0.00 | 36 | 1016.3 |
| 20260508212046 | 20 | 238 | 3.2 | 12.9 | 0.00 | 0.00 | 0.00 | 35 | 1016.4 |
| 20260508211548 | 20 | 274 | 0.0 | 11.3 | 0.00 | 0.00 | 0.00 | 36 | 1016.4 |
| 20260508211049 | 20 | 217 | 3.2 | 11.3 | 0.00 | 0.00 | 0.00 | 36 | 1016.3 |
| 20260508210546 | 20 | 150 | 3.2 | 9.7 | 0.00 | 0.00 | 0.00 | 35 | 1016.7 |
| 20260508210048 | 20 | 1 | 3.2 | 22.5 | 0.00 | 0.00 | 0.00 | 35 | 1016.6 |
| 20260508205047 | 20 | 248 | 11.3 | 22.5 | 0.00 | 0.00 | 0.00 | 34 | 1016.6 |
| 20260508204553 | 20 | 83 | 0.0 | 9.7 | 0.00 | 0.00 | 0.00 | 37 | 1016.8 |
| 20260508204047 | 20 | 249 | 3.2 | 9.7 | 0.00 | 0.00 | 0.00 | 35 | 1016.8 |
| 20260508203550 | 20 | 60 | 3.2 | 8.0 | 0.00 | 0.00 | 0.00 | 36 | 1016.9 |
| 20260508203046 | 20 | 210 | 1.6 | 16.1 | 0.00 | 0.00 | 0.00 | 36 | 1016.7 |
| 20260508202646 | 19 | 304 | 1.6 | 16.1 | 0.00 | 0.00 | 0.00 | 35 | 1016.8 |
| 20260508202048 | 20 | 257 | 3.2 | 22.5 | 0.00 | 0.00 | 0.00 | 35 | 1016.8 |
| 20260508201545 | 20 | 252 | 11.3 | 22.5 | 0.00 | 0.00 | 0.00 | 34 | 1016.9 |
| 20260508201044 | 19 | 252 | 6.4 | 17.7 | 0.00 | 0.00 | 0.00 | 34 | 1017.0 |
| 20260508200546 | 20 | 145 | 8.0 | 14.5 | 0.00 | 0.00 | 0.00 | 35 | 1017.1 |
| 20260508200145 | 19 | 119 | 4.8 | 11.3 | 0.00 | 0.00 | 0.00 | 34 | 1017.0 |
| 20260508195544 | 20 | 162 | 3.2 | 11.3 | 0.00 | 0.00 | 0.00 | 34 | 1017.2 |
| 20260508195044 | 20 | 261 | 4.8 | 11.3 | 0.00 | 0.00 | 0.00 | 32 | 1017.2 |
| 20260508194544 | 20 | 32 | 3.2 | 12.9 | 0.00 | 0.00 | 0.00 | 32 | 1017.3 |
| 20260508194043 | 20 | 124 | 6.4 | 12.9 | 0.00 | 0.00 | 0.00 | 34 | 1017.5 |
| 20260508193105 | 20 | 223 | 1.6 | 17.7 | 0.00 | 0.00 | 0.00 | 30 | 1017.5 |
| 20260508192042 | 20 | 71 | 6.4 | 17.7 | 0.00 | 0.00 | 0.00 | 30 | 1017.6 |
| 20260508191545 | 20 | 99 | 3.2 | 16.1 | 0.00 | 0.00 | 0.00 | 30 | 1017.9 |
| 20260508190542 | 20 | 210 | 4.8 | 11.3 | 0.00 | 0.00 | 0.00 | 33 | 1018.0 |
| 20260508190042 | 19 | 255 | 1.6 | 16.1 | 0.00 | 0.00 | 0.00 | 32 | 1018.1 |
| 20260508185541 | 19 | 323 | 4.8 | 20.9 | 0.00 | 0.00 | 0.00 | 32 | 1018.1 |
| 20260508185043 | 18 | 222 | 8.0 | 20.9 | 0.00 | 0.00 | 0.00 | 32 | 1018.2 |
| 20260508184542 | 19 | 314 | 8.0 | 16.1 | 0.00 | 0.00 | 0.00 | 31 | 1018.3 |
| 20260508184041 | 19 | 300 | 4.8 | 17.7 | 0.00 | 0.00 | 0.00 | 30 | 1018.3 |
| 20260508183541 | 20 | 34 | 3.2 | 17.7 | 0.00 | 0.00 | 0.00 | 29 | 1018.4 |
| 20260508183054 | 20 | 333 | 3.2 | 14.5 | 0.00 | 0.00 | 0.00 | 30 | 1018.5 |
| 20260508182041 | 20 | 323 | 4.8 | 17.7 | 0.00 | 0.00 | 0.00 | 30 | 1018.6 |
| 20260508181552 | 20 | 188 | 4.8 | 9.7 | 0.00 | 0.00 | 0.00 | 30 | 1018.4 |
| 20260508181040 | 20 | 86 | 1.6 | 16.1 | 0.00 | 0.00 | 0.00 | 30 | 1018.6 |
| 20260508180539 | 20 | 60 | 4.8 | 16.1 | 0.00 | 0.00 | 0.00 | 32 | 1018.9 |
| 20260508180041 | 19 | 88 | 4.8 | 11.3 | 0.00 | 0.00 | 0.00 | 30 | 1019.0 |
| 20260508175539 | 20 | 144 | 1.6 | 16.1 | 0.00 | 0.00 | 0.00 | 28 | 1019.0 |
| 20260508175039 | 20 | 56 | 6.4 | 16.1 | 0.00 | 0.00 | 0.00 | 30 | 1019.1 |
| 20260508174538 | 20 | 22 | 3.2 | 9.7 | 0.00 | 0.00 | 0.00 | 35 | 1019.1 |
| 20260508174038 | 18 | 6 | 1.6 | 11.3 | 0.00 | 0.00 | 0.00 | 32 | 1019.1 |
| 20260508173538 | 18 | 226 | 1.6 | 14.5 | 0.00 | 0.00 | 0.00 | 34 | 1019.2 |
| 20260508173037 | 20 | 115 | 1.6 | 17.7 | 0.00 | 0.00 | 0.00 | 32 | 1019.3 |
| 20260508172037 | 19 | 90 | 1.6 | 17.7 | 0.00 | 0.00 | 0.00 | 33 | 1019.4 |
| 20260508171535 | 18 | 90 | 1.6 | 12.9 | 0.00 | 0.00 | 0.00 | 33 | 1019.4 |
| 20260508171038 | 18 | 72 | 4.8 | 12.9 | 0.00 | 0.00 | 0.00 | 35 | 1019.5 |
| 20260508170535 | 18 | 84 | 3.2 | 11.3 | 0.00 | 0.00 | 0.00 | 34 | 1019.6 |
| 20260508170036 | 18 | 236 | 3.2 | 14.5 | 0.00 | 0.00 | 0.00 | 35 | 1019.9 |
| 20260508165534 | 18 | 290 | 3.2 | 14.5 | 0.00 | 0.00 | 0.00 | 35 | 1019.9 |
| 20260508165035 | 18 | 308 | 3.2 | 12.9 | 0.00 | 0.00 | 0.00 | 36 | 1019.9 |
| 20260508164533 | 18 | 66 | 4.8 | 12.9 | 0.00 | 0.00 | 0.00 | 35 | 1020.0 |
| 20260508164033 | 18 | 256 | 3.2 | 14.5 | 0.00 | 0.00 | 0.00 | 36 | 1020.1 |
| 20260508163533 | 18 | 240 | 6.4 | 14.5 | 0.00 | 0.00 | 0.00 | 35 | 1020.0 |
| 20260508163033 | 17 | 89 | 3.2 | 16.1 | 0.00 | 0.00 | 0.00 | 35 | 1020.1 |
| 20260508162135 | 18 | 105 | 0.0 | 8.0 | 0.00 | 0.00 | 0.00 | 36 | 1020.2 |
| 20260508161533 | 17 | 145 | 1.6 | 8.0 | 0.00 | 0.00 | 0.00 | 36 | 1020.3 |
| 20260508161133 | 18 | 76 | 3.2 | 8.0 | 0.00 | 0.00 | 0.00 | 35 | 1020.4 |
| 20260508160533 | 18 | 134 | 0.0 | 12.9 | 0.00 | 0.00 | 0.00 | 34 | 1020.5 |
| 20260508160033 | 17 | 239 | 3.2 | 9.7 | 0.00 | 0.00 | 0.00 | 37 | 1020.6 |
| 20260508155630 | 17 | 312 | 4.8 | 12.9 | 0.00 | 0.00 | 0.00 | 37 | 1020.6 |
| 20260508155031 | 17 | 115 | 3.2 | 12.9 | 0.00 | 0.00 | 0.00 | 38 | 1020.7 |
| 20260508154544 | 17 | 240 | 4.8 | 11.3 | 0.00 | 0.00 | 0.00 | 36 | 1020.7 |
| 20260508154033 | 17 | 70 | 3.2 | 11.3 | 0.00 | 0.00 | 0.00 | 37 | 1020.9 |
| 20260508153530 | 17 | 44 | 6.4 | 14.5 | 0.00 | 0.00 | 0.00 | 37 | 1021.0 |
| 20260508152531 | 17 | 150 | 9.7 | 16.1 | 0.00 | 0.00 | 0.00 | 34 | 1020.9 |
| 20260508152028 | 17 | 63 | 1.6 | 16.1 | 0.00 | 0.00 | 0.00 | 36 | 1020.9 |
| 20260508151533 | 17 | 101 | 6.4 | 16.1 | 0.00 | 0.00 | 0.00 | 35 | 1020.9 |
| 20260508151029 | 17 | 174 | 3.2 | 14.5 | 0.00 | 0.00 | 0.00 | 37 | 1020.8 |
| 20260508150035 | 17 | 151 | 1.6 | 6.4 | 0.00 | 0.00 | 0.00 | 38 | 1020.9 |
| 20260508145027 | 17 | 169 | 3.2 | 8.0 | 0.00 | 0.00 | 0.00 | 38 | 1021.0 |
| 20260508144526 | 17 | 77 | 1.6 | 8.0 | 0.00 | 0.00 | 0.00 | 40 | 1021.1 |
| 20260508144026 | 17 | 122 | 1.6 | 9.7 | 0.00 | 0.00 | 0.00 | 41 | 1021.1 |
| 20260508143525 | 16 | 60 | 1.6 | 9.7 | 0.00 | 0.00 | 0.00 | 43 | 1021.1 |
| 20260508143023 | 16 | 127 | 0.0 | 8.0 | 0.00 | 0.00 | 0.00 | 43 | 1021.0 |
| 20260508142522 | 16 | 36 | 3.2 | 8.0 | 0.00 | 0.00 | 0.00 | 45 | 1021.1 |
| 20260508142021 | 15 | 105 | 1.6 | 8.0 | 0.00 | 0.00 | 0.00 | 42 | 1021.0 |
| 20260508141526 | 15 | 95 | 4.8 | 9.7 | 0.00 | 0.00 | 0.00 | 42 | 1021.1 |
| 20260508141020 | 15 | 108 | 3.2 | 8.0 | 0.00 | 0.00 | 0.00 | 42 | 1021.1 |
| 20260508140523 | 15 | 257 | 1.6 | 8.0 | 0.00 | 0.00 | 0.00 | 43 | 1021.1 |
| 20260508140018 | 15 | 89 | 3.2 | 8.0 | 0.00 | 0.00 | 0.00 | 43 | 1021.1 |
| 20260508135019 | 14 | 226 | 3.2 | 8.0 | 0.00 | 0.00 | 0.00 | 43 | 1021.2 |
| 20260508134517 | 14 | 168 | 0.0 | 6.4 | 0.00 | 0.00 | 0.00 | 42 | 1021.0 |
| 20260508134017 | 13 | 159 | 3.2 | 9.7 | 0.00 | 0.00 | 0.00 | 42 | 1021.2 |
| 20260508133516 | 13 | 95 | 1.6 | 11.3 | 0.00 | 0.00 | 0.00 | 44 | 1021.2 |
| 20260508133019 | 13 | 94 | 6.4 | 11.3 | 0.00 | 0.00 | 0.00 | 41 | 1021.1 |
| 20260508132516 | 13 | 147 | 3.2 | 9.7 | 0.00 | 0.00 | 0.00 | 36 | 1021.2 |
| 20260508132014 | 13 | 80 | 0.0 | 4.8 | 0.00 | 0.00 | 0.00 | 39 | 1021.1 |
| 20260508131514 | 13 | 154 | 1.6 | 4.8 | 0.00 | 0.00 | 0.00 | 40 | 1021.1 |
| 20260508131012 | 13 | 237 | 1.6 | 4.8 | 0.00 | 0.00 | 0.00 | 41 | 1021.1 |
| 20260508130512 | 12 | 135 | 0.0 | 6.4 | 0.00 | 0.00 | 0.00 | 43 | 1021.1 |
| 20260508130013 | 11 | 101 | 1.6 | 4.8 | 0.00 | 0.00 | 0.00 | 48 | 1021.0 |
| 20260508125012 | 11 | 89 | 0.0 | 4.8 | 0.00 | 0.00 | 0.00 | 49 | 1020.9 |
| 20260508124508 | 11 | 252 | 0.0 | 4.8 | 0.00 | 0.00 | 0.00 | 53 | 1020.9 |
| 20260508124006 | 10 | 231 | 1.6 | 4.8 | 0.00 | 0.00 | 0.00 | 53 | 1020.9 |
| 20260508123509 | 10 | 249 | 1.6 | 4.8 | 0.00 | 0.00 | 0.00 | 54 | 1020.9 |
| 20260508123006 | 10 | 150 | 0.0 | 0.0 | 0.00 | 0.00 | 0.00 | 55 | 1020.8 |
| 20260508122506 | 10 | 156 | 0.0 | 0.0 | 0.00 | 0.00 | 0.00 | 56 | 1020.8 |
| 20260508122004 | 10 | 148 | 0.0 | 0.0 | 0.00 | 0.00 | 0.00 | 57 | 1020.8 |
| 20260508121602 | 10 | 148 | 0.0 | 0.0 | 0.00 | 0.00 | 0.00 | 57 | 1020.8 |
| 20260508121002 | 9 | 148 | 0.0 | 0.0 | 0.00 | 0.00 | 0.00 | 57 | 1020.7 |
| 20260508120500 | 8 | 148 | 0.0 | 3.2 | 0.00 | 0.00 | 0.00 | 57 | 1020.7 |
| 20260508120101 | 8 | 153 | 0.0 | 3.2 | 0.00 | 0.00 | 0.00 | 57 | 1020.7 |
| 20260508115058 | 8 | 125 | 0.0 | 0.0 | 0.00 | 0.25 | 0.00 | 57 | 1020.6 |
| 20260508114603 | 8 | 124 | 0.0 | 1.6 | 0.00 | 0.25 | 0.00 | 58 | 1020.5 |
| 20260508114057 | 8 | 125 | 0.0 | 1.6 | 0.00 | 0.25 | 0.00 | 58 | 1020.4 |
| 20260508113557 | 8 | 125 | 0.0 | 1.6 | 0.00 | 0.25 | 0.00 | 58 | 1020.3 |
| 20260508113057 | 7 | 124 | 0.0 | 0.0 | 0.00 | 0.25 | 0.00 | 58 | 1020.3 |
| 20260508112657 | 7 | 125 | 0.0 | 0.0 | 0.00 | 0.25 | 0.00 | 58 | 1020.1 |
| 20260508112057 | 7 | 124 | 0.0 | 0.0 | 0.00 | 0.25 | 0.00 | 58 | 1020.0 |
| 20260508111556 | 6 | 124 | 0.0 | 0.0 | 0.00 | 0.25 | 0.00 | 58 | 1019.9 |
| 20260508111054 | 6 | 124 | 0.0 | 0.0 | 0.00 | 0.25 | 0.00 | 58 | 1019.8 |
| 20260508110553 | 6 | 124 | 0.0 | 0.0 | 0.00 | 0.25 | 0.00 | 58 | 1019.7 |
| 20260508110152 | 6 | 125 | 0.0 | 0.0 | 0.00 | 0.25 | 0.00 | 58 | 1019.7 |
| 20260508105056 | 6 | 125 | 0.0 | 0.0 | 0.00 | 0.25 | 0.00 | 59 | 1019.5 |
| 20260508104554 | 6 | 125 | 0.0 | 0.0 | 0.00 | 0.25 | 0.00 | 59 | 1019.4 |
| 20260508104053 | 6 | 125 | 0.0 | 0.0 | 0.00 | 0.25 | 0.00 | 59 | 1019.3 |
| 20260508103058 | 6 | 125 | 0.0 | 0.0 | 0.00 | 0.25 | 0.00 | 58 | 1019.1 |
| 20260508102550 | 6 | 125 | 0.0 | 0.0 | 0.00 | 0.25 | 0.00 | 58 | 1019.0 |
| 20260508102050 | 6 | 125 | 0.0 | 0.0 | 0.00 | 0.25 | 0.00 | 58 | 1018.9 |
| 20260508101549 | 6 | 125 | 0.0 | 0.0 | 0.00 | 0.25 | 0.00 | 58 | 1018.8 |
| 20260508100548 | 6 | 125 | 0.0 | 0.0 | 0.00 | 0.25 | 0.00 | 58 | 1018.7 |
| 20260508100104 | 6 | 125 | 0.0 | 0.0 | 0.00 | 0.25 | 0.00 | 58 | 1018.6 |
| 20260508095046 | 6 | 125 | 0.0 | 0.0 | 0.00 | 0.25 | 0.00 | 58 | 1018.5 |
| 20260508094549 | 7 | 125 | 0.0 | 0.0 | 0.00 | 0.25 | 0.00 | 58 | 1018.4 |
| 20260508094045 | 7 | 125 | 0.0 | 0.0 | 0.00 | 0.25 | 0.00 | 58 | 1018.5 |
| 20260508093544 | 7 | 125 | 0.0 | 0.0 | 0.00 | 0.25 | 0.00 | 58 | 1018.5 |
| 20260508093043 | 7 | 125 | 0.0 | 1.6 | 0.00 | 0.25 | 0.00 | 58 | 1018.5 |
| 20260508092546 | 7 | 125 | 0.0 | 1.6 | 0.00 | 0.25 | 0.00 | 58 | 1018.5 |
| 20260508092042 | 7 | 125 | 0.0 | 0.0 | 0.00 | 0.25 | 0.00 | 58 | 1018.3 |
| 20260508091546 | 7 | 125 | 0.0 | 0.0 | 0.00 | 0.25 | 0.00 | 57 | 1018.3 |
| 20260508091042 | 7 | 125 | 0.0 | 0.0 | 0.00 | 0.25 | 0.00 | 57 | 1018.3 |
| 20260508090539 | 7 | 125 | 0.0 | 0.0 | 0.00 | 0.25 | 0.00 | 57 | 1018.3 |
| 20260508090103 | 7 | 125 | 0.0 | 0.0 | 0.00 | 0.25 | 0.00 | 57 | 1018.2 |
| 20260508085539 | 7 | 138 | 0.0 | 0.0 | 0.00 | 0.28 | 0.00 | 57 | 1018.2 |
| 20260508085038 | 7 | 138 | 0.0 | 1.6 | 0.00 | 0.28 | 0.00 | 57 | 1018.1 |
| 20260508084544 | 7 | 138 | 0.0 | 1.6 | 0.00 | 0.28 | 0.00 | 57 | 1018.1 |
| 20260508084039 | 7 | 107 | 0.0 | 1.6 | 0.00 | 0.28 | 0.00 | 57 | 1018.0 |
| 20260508083537 | 7 | 107 | 0.0 | 1.6 | 0.00 | 0.28 | 0.00 | 57 | 1017.9 |
| 20260508083038 | 7 | 109 | 0.0 | 0.0 | 0.00 | 0.28 | 0.00 | 57 | 1017.9 |
| 20260508082040 | 7 | 109 | 0.0 | 1.6 | 0.00 | 0.28 | 0.00 | 57 | 1018.0 |
| 20260508081548 | 7 | 109 | 0.0 | 0.0 | 0.00 | 0.28 | 0.00 | 56 | 1017.8 |
| 20260508081036 | 7 | 109 | 0.0 | 0.0 | 0.00 | 0.28 | 0.00 | 56 | 1017.8 |
| 20260508080537 | 7 | 109 | 0.0 | 1.6 | 0.00 | 0.28 | 0.00 | 56 | 1017.8 |
| 20260508080039 | 7 | 109 | 0.0 | 1.6 | 0.00 | 0.28 | 0.00 | 56 | 1017.9 |
| 20260508075540 | 7 | 109 | 0.0 | 1.6 | 0.00 | 0.28 | 0.00 | 56 | 1017.7 |
| 20260508075034 | 7 | 109 | 0.0 | 3.2 | 0.00 | 0.28 | 0.00 | 56 | 1017.7 |
| 20260508074534 | 7 | 120 | 0.0 | 3.2 | 0.00 | 0.28 | 0.00 | 55 | 1017.6 |
| 20260508074035 | 7 | 117 | 0.0 | 3.2 | 0.00 | 0.28 | 0.00 | 55 | 1017.6 |
| 20260508073535 | 7 | 100 | 0.0 | 3.2 | 0.00 | 0.28 | 0.00 | 55 | 1017.5 |
| 20260508073037 | 7 | 103 | 0.0 | 1.6 | 0.00 | 0.28 | 0.00 | 54 | 1017.4 |
| 20260508072134 | 7 | 104 | 0.0 | 1.6 | 0.00 | 0.28 | 0.00 | 53 | 1017.5 |
| 20260508071533 | 7 | 103 | 0.0 | 1.6 | 0.00 | 0.28 | 0.00 | 53 | 1017.5 |
| 20260508071032 | 7 | 103 | 0.0 | 0.0 | 0.00 | 0.28 | 0.00 | 53 | 1017.6 |
| 20260508070532 | 7 | 103 | 0.0 | 1.6 | 0.00 | 0.28 | 0.00 | 52 | 1017.4 |
| 20260508070031 | 7 | 103 | 0.0 | 1.6 | 0.00 | 0.28 | 0.00 | 53 | 1017.3 |
| 20260508065631 | 7 | 103 | 0.0 | 0.0 | 0.00 | 0.28 | 0.00 | 52 | 1017.3 |
| 20260508065033 | 8 | 103 | 0.0 | 1.6 | 0.00 | 0.28 | 0.00 | 52 | 1017.3 |
| 20260508064531 | 8 | 103 | 0.0 | 1.6 | 0.00 | 0.28 | 0.00 | 52 | 1017.3 |
| 20260508064032 | 8 | 103 | 0.0 | 1.6 | 0.00 | 0.28 | 0.00 | 52 | 1017.2 |
| 20260508063528 | 8 | 90 | 0.0 | 4.8 | 0.00 | 0.28 | 0.00 | 52 | 1017.2 |
| 20260508062028 | 8 | 127 | 0.0 | 6.4 | 0.00 | 0.28 | 0.00 | 52 | 1017.2 |
| 20260508061533 | 8 | 144 | 1.6 | 6.4 | 0.00 | 0.28 | 0.00 | 53 | 1017.1 |
| 20260508061027 | 8 | 98 | 0.0 | 4.8 | 0.00 | 0.28 | 0.00 | 53 | 1017.0 |
| 20260508060027 | 8 | 105 | 0.0 | 1.6 | 0.00 | 0.28 | 0.00 | 53 | 1016.9 |
| 20260508055526 | 8 | 104 | 0.0 | 3.2 | 0.00 | 0.41 | 0.00 | 52 | 1017.0 |
| 20260508055026 | 8 | 109 | 0.0 | 3.2 | 0.00 | 0.41 | 0.00 | 53 | 1017.0 |
| 20260508054533 | 8 | 103 | 0.0 | 3.2 | 0.00 | 0.41 | 0.00 | 52 | 1016.9 |
| 20260508054025 | 8 | 106 | 0.0 | 3.2 | 0.00 | 0.41 | 0.00 | 51 | 1017.0 |
| 20260508053525 | 8 | 101 | 0.0 | 1.6 | 0.00 | 0.41 | 0.00 | 50 | 1016.9 |
| 20260508053032 | 8 | 101 | 0.0 | 1.6 | 0.00 | 0.41 | 0.00 | 48 | 1017.0 |
| 20260508052026 | 8 | 101 | 0.0 | 1.6 | 0.00 | 0.41 | 0.00 | 48 | 1016.8 |
| 20260508051522 | 8 | 101 | 0.0 | 1.6 | 0.00 | 0.41 | 0.00 | 48 | 1016.9 |
| 20260508051028 | 8 | 101 | 0.0 | 1.6 | 0.00 | 0.41 | 0.00 | 47 | 1016.9 |
| 20260508050521 | 8 | 101 | 0.0 | 1.6 | 0.00 | 0.41 | 0.00 | 48 | 1016.8 |
| 20260508050020 | 8 | 101 | 0.0 | 1.6 | 0.00 | 0.41 | 0.00 | 47 | 1016.8 |
| 20260508045519 | 8 | 101 | 0.0 | 1.6 | 0.00 | 0.53 | 0.00 | 48 | 1016.7 |
| 20260508045019 | 8 | 101 | 0.0 | 1.6 | 0.00 | 0.53 | 0.00 | 48 | 1016.6 |
| 20260508044519 | 8 | 101 | 0.0 | 0.0 | 0.00 | 0.53 | 0.00 | 49 | 1016.5 |
| 20260508044020 | 8 | 101 | 0.0 | 0.0 | 0.00 | 0.53 | 0.00 | 50 | 1016.5 |
| 20260508043517 | 8 | 101 | 0.0 | 4.8 | 0.00 | 0.53 | 0.00 | 50 | 1016.4 |
| 20260508043019 | 8 | 101 | 0.0 | 4.8 | 0.00 | 0.53 | 0.00 | 50 | 1016.5 |
| 20260508042053 | 8 | 102 | 0.0 | 1.6 | 0.00 | 0.53 | 0.00 | 50 | 1016.4 |
| 20260508041554 | 8 | 101 | 0.0 | 1.6 | 0.00 | 0.53 | 0.00 | 50 | 1016.4 |
| 20260508041053 | 8 | 104 | 0.0 | 1.6 | 0.00 | 0.53 | 0.00 | 51 | 1016.3 |
| 20260508040552 | 8 | 105 | 0.0 | 1.6 | 0.00 | 0.53 | 0.00 | 51 | 1016.4 |
| 20260508040150 | 9 | 105 | 0.0 | 1.6 | 0.00 | 0.53 | 0.00 | 52 | 1016.4 |
| 20260508035551 | 9 | 105 | 0.0 | 1.6 | 0.00 | 0.53 | 0.53 | 52 | 1016.4 |
| 20260508034545 | 9 | 114 | 0.0 | 3.2 | 0.00 | 0.53 | 0.53 | 54 | 1016.5 |
| 20260508034035 | 9 | 95 | 0.0 | 1.6 | 0.00 | 0.53 | 0.53 | 54 | 1016.5 |
| 20260508033034 | 9 | 96 | 0.0 | 0.0 | 0.00 | 0.53 | 0.53 | 56 | 1016.4 |
| 20260508032534 | 9 | 96 | 0.0 | 0.0 | 0.00 | 0.53 | 0.53 | 57 | 1016.4 |
| 20260508032033 | 10 | 95 | 0.0 | 0.0 | 0.00 | 0.53 | 0.53 | 56 | 1016.4 |
| 20260508031537 | 10 | 95 | 0.0 | 1.6 | 0.00 | 0.53 | 0.53 | 57 | 1016.4 |
| 20260508031034 | 10 | 96 | 0.0 | 1.6 | 0.00 | 0.53 | 0.53 | 57 | 1016.3 |
| 20260508030532 | 10 | 94 | 0.0 | 1.6 | 0.00 | 0.53 | 0.53 | 57 | 1016.4 |
| 20260508030031 | 10 | 94 | 0.0 | 3.2 | 0.00 | 0.53 | 0.53 | 58 | 1016.2 |
| 20260508025528 | 10 | 101 | 0.0 | 1.6 | 0.00 | 0.56 | 0.53 | 59 | 1016.1 |
| 20260508024551 | 10 | 104 | 0.0 | 1.6 | 0.00 | 0.56 | 0.53 | 59 | 1016.2 |
| 20260508024028 | 10 | 104 | 0.0 | 1.6 | 0.00 | 0.56 | 0.53 | 58 | 1015.9 |
| 20260508023528 | 11 | 104 | 0.0 | 1.6 | 0.00 | 0.56 | 0.53 | 58 | 1015.9 |
| 20260508023026 | 11 | 104 | 0.0 | 1.6 | 0.00 | 0.56 | 0.53 | 58 | 1015.8 |
| 20260508022528 | 11 | 104 | 0.0 | 1.6 | 0.00 | 0.56 | 0.53 | 57 | 1015.8 |
| 20260508022025 | 11 | 103 | 0.0 | 3.2 | 0.00 | 0.56 | 0.53 | 57 | 1015.8 |
| 20260508021524 | 11 | 73 | 0.0 | 3.2 | 0.00 | 0.56 | 0.53 | 57 | 1015.6 |
| 20260508021023 | 11 | 73 | 0.0 | 3.2 | 0.00 | 0.56 | 0.53 | 57 | 1015.6 |
| 20260508020523 | 11 | 72 | 0.0 | 1.6 | 0.00 | 0.56 | 0.53 | 56 | 1015.7 |
| 20260508020023 | 11 | 72 | 0.0 | 3.2 | 0.00 | 0.56 | 0.53 | 56 | 1015.6 |
| 20260508015522 | 11 | 72 | 0.0 | 3.2 | 0.00 | 0.64 | 0.53 | 56 | 1015.5 |
| 20260508014524 | 11 | 83 | 0.0 | 1.6 | 0.00 | 0.64 | 0.53 | 56 | 1015.3 |
| 20260508014021 | 11 | 83 | 0.0 | 1.6 | 0.00 | 0.64 | 0.53 | 55 | 1015.3 |
| 20260508013523 | 12 | 83 | 0.0 | 1.6 | 0.00 | 0.64 | 0.53 | 55 | 1015.0 |
| 20260508013018 | 12 | 83 | 0.0 | 1.6 | 0.00 | 0.64 | 0.53 | 54 | 1014.9 |
| 20260508012517 | 12 | 67 | 0.0 | 1.6 | 0.00 | 0.64 | 0.53 | 52 | 1014.8 |
| 20260508012017 | 12 | 67 | 0.0 | 1.6 | 0.00 | 0.64 | 0.53 | 51 | 1014.8 |
| 20260508011515 | 13 | 67 | 0.0 | 1.6 | 0.00 | 0.64 | 0.53 | 52 | 1014.8 |
| 20260508011015 | 13 | 67 | 0.0 | 3.2 | 0.00 | 0.64 | 0.53 | 50 | 1014.7 |
| 20260508010514 | 13 | 67 | 0.0 | 8.0 | 0.00 | 0.64 | 0.53 | 49 | 1014.6 |
| 20260508010012 | 13 | 90 | 0.0 | 6.4 | 0.00 | 0.64 | 0.53 | 47 | 1014.5 |
| 20260508005511 | 14 | 132 | 3.2 | 11.3 | 0.00 | 0.97 | 0.53 | 46 | 1014.5 |
| 20260508004613 | 14 | 108 | 0.0 | 19.3 | 0.00 | 0.97 | 0.53 | 46 | 1014.4 |
| 20260508004013 | 14 | 143 | 4.8 | 19.3 | 0.00 | 0.97 | 0.53 | 46 | 1014.3 |
| 20260508003512 | 14 | 82 | 6.4 | 19.3 | 0.00 | 0.97 | 0.53 | 46 | 1014.3 |
| 20260508003012 | 14 | 158 | 8.0 | 19.3 | 0.00 | 0.97 | 0.53 | 47 | 1014.0 |
| 20260508002512 | 14 | 110 | 8.0 | 17.7 | 0.00 | 0.97 | 0.53 | 46 | 1014.0 |
| 20260508002111 | 14 | 127 | 1.6 | 11.3 | 0.00 | 0.97 | 0.53 | 47 | 1013.9 |
| 20260508001527 | 14 | 72 | 1.6 | 14.5 | 0.00 | 0.97 | 0.53 | 47 | 1014.0 |
| 20260508001010 | 14 | 98 | 3.2 | 9.7 | 0.00 | 0.97 | 0.53 | 47 | 1014.0 |
| 20260508000509 | 14 | 103 | 0.0 | 8.0 | 0.00 | 0.97 | 0.53 | 47 | 1013.8 |
| 20260508000009 | 14 | 158 | 1.6 | 14.5 | 0.00 | 0.97 | 0.53 | 47 | 1013.6 |
| 20260507234510 | 15 | 163 | 4.8 | 22.5 | 0.00 | 1.17 | 0.53 | 47 | 1013.6 |
| 20260507234009 | 15 | 89 | 8.0 | 32.2 | 0.00 | 1.17 | 0.53 | 47 | 1013.7 |
| 20260507233513 | 15 | 81 | 3.2 | 17.7 | 0.00 | 1.17 | 0.53 | 46 | 1013.5 |
| 20260507232508 | 15 | 130 | 6.4 | 22.5 | 0.00 | 1.17 | 0.53 | 47 | 1013.4 |
| 20260507232007 | 15 | 158 | 4.8 | 22.5 | 0.00 | 1.17 | 0.53 | 47 | 1013.4 |
| 20260507231506 | 15 | 103 | 9.7 | 24.1 | 0.00 | 1.17 | 0.53 | 48 | 1013.4 |